{"data":{"norad_id":68029,"epoch":"2026-09-18T13:57:44.027712Z","epoch_age_seconds":225281,"freshness":"STALE","line1":"1 68029U 26040Q   26261.58175958  .00028393  00000+0  87849-3 0  9995","line2":"2 68029  97.2850 208.9428 0002754  83.4636 276.6920 15.33442987 31023","mean_motion":15.33442987,"eccentricity":0.0002754,"inclination_deg":97.285,"raan_deg":208.9428,"arg_perigee_deg":83.4636,"mean_anomaly_deg":276.692,"bstar":0.00087849,"rev_number":3102,"period_min":93.906327930534,"perigee_km":463.66441258692,"apogee_km":467.43391492592,"semimajor_km":6843.6861637564,"source":"CELESTRAK","updated_at":"2026-09-20T09:00:43.744369Z"}}